Hauptseite
METAR-TAF:

METAR-TAF

Flughäfen :

Passo Rolle, Italien

Breite: 46-18N, Länge: 011-47E, Höhe: 2004 m

Beobachtung

Neuester Wetterbericht von vor 1 Stunde und 8 Minuten, um 18:55 UTC
Wind 6 kt aus Ost/Südost
Temperatur 6°C
Luftfeuchtigkeit 93%
Luftdruck 1011 hPa
Sichtweite: 0600 m
Leichtregen, Nebel

METAR: LIVR 301855Z 11006KT 0600 -RA FG VV/// 06/05 Q1011 RMK MON INVIS VIS MIN 0600

Zeit: 22:03 (20:03 UTC)


TAF: fehlend

Wetterbeobachtungen und Prognosen von mehr als 4000 Flughäfen (METAR und TAF Bericht).

Die verfügbaren Stationen werden durch gelbe und rote Markierungen auf der Karte dargestellt.

Führen Sie die Maus auf sie, um den Namen der Station zu sehen.

Darauf klicken, um die Beobachtung von Wetterbeobachtungen und Prognosen zu sehen.

Um die Karte zu ändern : klicken Sie auf den grünen Tasten mit einem schwarzen Kreuz Zum Vergrößern, auf den grünen Button mit einem Gedankenstrich zu verkleinern, oder auf die grünen Pfeile für benachbarte Karten.


METAR-TAF: